Regional Weather Roundup
Issued by NWS Northern Indiana

Home | Current Version | Previous Version | Graphics & Text | Print | Product List | Glossary On
Versions: 1 2 3 4 5 6 7 8 9 10 11 12 13 14 15 16 17 18 19 20 21 22 23 24 25 26 27 28 29 30 31 32 33 34 35 36 37 38 39 40 41 42 43 44 45 46 47 48 49 50
000
ASUS43 KIWX 021310
RWRIWX

KIWX WEATHER ROUNDUP
NATIONAL WEATHER SERVICE NORTHERN INDIANA
800 AM EST FRI DEC 02 2016

NOTE: "FAIR" INDICATES FEW OR NO CLOUDS BELOW 12,000 FEET WITH NO
SIGNIFICANT WEATHER AND/OR OBSTRUCTIONS TO VISIBILITY.

* THESE STATIONS ARE NOT UNDER NWS QUALITY CONTROL. THEY ALSO MAY NOT
  REPORT WEATHER SUCH AS PRECIPITATION OR FOG.

INZ001>027-021400-
NORTHERN INDIANA

CITY           SKY/WX    TMP DP  RH WIND       PRES   REMARKS
GARY*          CLOUDY    39  34  81 W6        30.11R
VALPARAISO     CLOUDY    37  33  85 W8        30.10S
MICHIGAN CITY* CLOUDY    37  30  75 W7        30.09S
LAPORTE*       CLOUDY    38  38 100 W8        30.09S
KNOX*          CLOUDY    34  23  64 W9        30.10R WCI  26
SOUTH BEND     CLOUDY    36  32  85 W10       30.08R
ELKHART*       CLOUDY    36  32  87 SW8       30.07R
GOSHEN         LGT RAIN  36  31  82 W13       30.08R
MONTICELLO*    CLOUDY    35  29  79 W9        30.13R WCI  28
LOGANSPORT*    CLOUDY    34  32  93 W9        30.13R WCI  26
ROCHESTER*     CLOUDY    36  36 100 W7        30.11R FOG
WARSAW*        CLOUDY    34  32  93 W9        30.09R WCI  26
ANGOLA*        CLOUDY    36  34  93 W9        30.05R
FORT WAYNE     LGT RAIN  35  32  88 W13       30.10R WCI  26
HUNTINGTON*    CLOUDY    34  33  94 W9        30.11R WCI  27
PERU/GRISSOM   FLURRIES  35  33  92 W12       30.11R WCI  27
MARION*        CLOUDY    34  32  93 W10       30.13R FOG     WCI  26

$$
INZ028>050-021400-
CENTRAL INDIANA

CITY           SKY/WX    TMP DP  RH WIND       PRES   REMARKS
LAFAYETTE      CLOUDY    36  31  82 W7        30.14R
KOKOMO*        CLOUDY    35  31  85 W12       30.13R WCI  27
MUNCIE*        CLOUDY    36  31  82 W10       30.13R
INDIANAPOLIS   CLOUDY    36  29  75 W12       30.15R

$$
MIZ043>046-050>051-056>058-064>065-071>073-077>080-021400-
SOUTHWEST LOWER MICHIGAN

CITY           SKY/WX    TMP DP  RH WIND       PRES   REMARKS
BATTLE CREEK   LGT RAIN  36  35  96 W7        30.03R
BENTON HARBOR  CLOUDY    40  29  64 W13G21    30.06R
COLDWATER*     CLOUDY    36  32  85 W12       30.04R
HILLSDALE*     CLOUDY    34  32  93 W10       30.01R WCI  26
HOLLAND        CLOUDY    39  30  70 NW14      30.04R
GRAND RAPIDS   CLOUDY    37  26  64 NW9       30.02R
KALAMAZOO      LGT RAIN  37  32  82 W9        30.04R
STURGIS*       CLOUDY    36  32  87 W6        30.04S
THREE RIVERS*  CLOUDY    37  34  88 SW5       30.05R

$$
OHZ001>008-015>018-024>025-021400-
NORTHWEST OHIO

CITY           SKY/WX    TMP DP  RH WIND       PRES   REMARKS
WAUSEON*       CLOUDY    37  34  87 W14G20    30.04R
DEFIANCE       CLOUDY    38  31  76 SW9G20    30.07R
FINDLAY        CLOUDY    37  30  75 SW16      30.05S
TOLEDO EXPRESS MOCLDY    36  33  89 W14       30.04R
TOLEDO METCALF PTCLDY    36  32  85 W9        30.05R
LIMA           CLOUDY    35  31  85 SW14      30.09R WCI  26

$$
AND FOR LAKE MICHIGAN COASTAL AND OPEN LAKE BUOY OBSERVATIONS

STATION/POSITION TEMP    WIND        PRES    VSBY  WAVE
                 AIR SEA DIR/SP/G                  HT/PER
                 (F)     (DEG/KT/KT) (MB)    (MI)  (FT/S)
CALUMET HARBOR    37     240/  6/  8 1018.8R
MICHIGAN CITY     39     260/ 16/ 19   N/A
BURNS HARBOR      40     270/ 14/ 22 1019.3R
SAINT JOSEPH      41     280/ 14/ 20 1018.3
SOUTH LAKE BUOY   40 49  300/ 23/ 27 1016.9          4/ 5

$$
&&




USA.gov is the U.S. government's official web portal to all federal, state and local government web resources and services.